| time (UTC) | temp F | wind direction | speed MPH | gust MPH | rain 1hr in | rain 24hr in | rain mn in | humidity % | barometer mb |
| 20260507012703 | 52 | 183 | 6.0 | 13.0 | 0.00 | 1.20 | 0.00 | 87 | 1007.1 |
| 20260507011803 | 52 | 184 | 8.0 | 17.0 | 0.00 | 1.20 | 0.00 | 87 | 1007.1 |
| 20260507010903 | 52 | 173 | 8.0 | 16.0 | 0.00 | 1.22 | 0.00 | 87 | 1007.0 |
| 20260507010003 | 52 | 182 | 7.0 | 16.0 | 0.00 | 1.24 | 0.00 | 87 | 1006.8 |
| 20260507005403 | 52 | 187 | 8.0 | 15.0 | 0.00 | 1.28 | 0.00 | 87 | 1007.0 |
| 20260507004503 | 52 | 189 | 8.0 | 18.0 | 0.00 | 1.39 | 0.00 | 87 | 1006.9 |
| 20260507003603 | 52 | 184 | 8.0 | 18.0 | 0.00 | 1.49 | 0.00 | 87 | 1007.0 |
| 20260507002917 | 52 | 182 | 8.0 | 15.0 | 0.00 | 1.51 | 0.00 | 87 | 1007.2 |
| 20260507002018 | 52 | 167 | 8.0 | 16.0 | 0.00 | 1.51 | 0.00 | 87 | 1007.1 |
| 20260507000903 | 52 | 187 | 8.0 | 18.0 | 0.00 | 1.53 | 0.00 | 87 | 1007.2 |
| 20260507000004 | 52 | 176 | 8.0 | 14.0 | 0.00 | 1.53 | 0.00 | 87 | 1007.2 |
| 20260506235404 | 52 | 182 | 9.0 | 18.0 | 0.00 | 1.55 | 0.00 | 88 | 1007.3 |
| 20260506234503 | 52 | 178 | 9.0 | 19.0 | 0.00 | 1.65 | 0.00 | 88 | 1007.2 |
| 20260506233603 | 52 | 176 | 10.0 | 17.0 | 0.00 | 1.69 | 0.00 | 88 | 1007.3 |
| 20260506232703 | 52 | 178 | 9.0 | 18.0 | 0.00 | 1.71 | 0.00 | 89 | 1007.4 |
| 20260506231803 | 52 | 188 | 7.0 | 16.0 | 0.00 | 1.71 | 0.00 | 89 | 1007.4 |
| 20260506230903 | 52 | 191 | 11.0 | 20.0 | 0.00 | 1.71 | 0.00 | 89 | 1007.4 |
| 20260506230003 | 52 | 186 | 10.0 | 19.0 | 0.00 | 1.71 | 0.00 | 89 | 1007.3 |
| 20260506225403 | 52 | 175 | 10.0 | 19.0 | 0.00 | 1.71 | 0.00 | 89 | 1007.3 |
| 20260506224503 | 52 | 198 | 9.0 | 19.0 | 0.00 | 1.71 | 0.00 | 89 | 1007.3 |
| 20260506223603 | 52 | 183 | 11.0 | 19.0 | 0.00 | 1.71 | 0.00 | 89 | 1007.4 |
| 20260506222703 | 52 | 199 | 11.0 | 19.0 | 0.00 | 1.71 | 0.00 | 89 | 1007.1 |
| 20260506221803 | 52 | 192 | 10.0 | 20.0 | 0.00 | 1.71 | 0.00 | 90 | 1007.3 |
| 20260506220903 | 52 | 189 | 11.0 | 18.0 | 0.00 | 1.71 | 0.00 | 90 | 1007.2 |
| 20260506220003 | 52 | 204 | 10.0 | 18.0 | 0.00 | 1.71 | 0.00 | 90 | 1007.3 |
| 20260506215403 | 52 | 212 | 10.0 | 18.0 | 0.00 | 1.71 | 1.71 | 90 | 1007.2 |
| 20260506214503 | 51 | 212 | 8.0 | 15.0 | 0.00 | 1.71 | 1.71 | 90 | 1007.3 |
| 20260506213816 | 51 | 208 | 8.0 | 14.0 | 0.00 | 1.71 | 1.71 | 90 | 1007.3 |
| 20260506212703 | 52 | 210 | 10.0 | 17.0 | 0.00 | 1.71 | 1.71 | 89 | 1007.2 |
| 20260506211803 | 52 | 195 | 10.0 | 21.0 | 0.00 | 1.71 | 1.71 | 89 | 1007.3 |
| 20260506210903 | 52 | 193 | 9.0 | 17.0 | 0.00 | 1.71 | 1.71 | 89 | 1007.3 |
| 20260506210003 | 52 | 195 | 9.0 | 17.0 | 0.00 | 1.71 | 1.71 | 89 | 1007.3 |
| 20260506205403 | 52 | 188 | 8.0 | 17.0 | 0.00 | 1.71 | 1.71 | 88 | 1007.5 |
| 20260506204503 | 52 | 183 | 8.0 | 19.0 | 0.00 | 1.71 | 1.71 | 88 | 1007.1 |
| 20260506203603 | 51 | 197 | 7.0 | 13.0 | 0.00 | 1.71 | 1.71 | 88 | 1007.2 |
| 20260506202703 | 52 | 189 | 9.0 | 17.0 | 0.00 | 1.71 | 1.71 | 88 | 1007.4 |
| 20260506201803 | 52 | 192 | 9.0 | 15.0 | 0.00 | 1.71 | 1.71 | 88 | 1007.1 |
| 20260506200903 | 52 | 193 | 9.0 | 17.0 | 0.00 | 1.71 | 1.71 | 88 | 1007.1 |
| 20260506200003 | 52 | 179 | 9.0 | 18.0 | 0.00 | 1.71 | 1.71 | 88 | 1007.1 |
| 20260506195403 | 52 | 168 | 9.0 | 17.0 | 0.00 | 1.71 | 1.71 | 88 | 1007.0 |
| 20260506194503 | 52 | 173 | 9.0 | 17.0 | 0.00 | 1.71 | 1.71 | 88 | 1006.8 |
| 20260506193603 | 52 | 194 | 10.0 | 20.0 | 0.02 | 1.71 | 1.71 | 89 | 1006.7 |
| 20260506192917 | 52 | 184 | 10.0 | 20.0 | 0.02 | 1.71 | 1.71 | 89 | 1006.7 |
| 20260506191804 | 52 | 177 | 10.0 | 21.0 | 0.10 | 1.71 | 1.71 | 90 | 1006.3 |
| 20260506190903 | 52 | 172 | 8.0 | 17.0 | 0.12 | 1.71 | 1.71 | 90 | 1006.3 |
| 20260506190004 | 52 | 179 | 10.0 | 22.0 | 0.12 | 1.71 | 1.71 | 90 | 1006.0 |
| 20260506185403 | 52 | 187 | 9.0 | 22.0 | 0.12 | 1.71 | 1.71 | 90 | 1005.9 |
| 20260506184503 | 52 | 207 | 4.0 | 12.0 | 0.12 | 1.71 | 1.71 | 90 | 1005.7 |
| 20260506183603 | 52 | 247 | 3.0 | 12.0 | 0.10 | 1.71 | 1.69 | 90 | 1005.7 |
| 20260506182703 | 52 | 243 | 5.0 | 12.0 | 0.10 | 1.71 | 1.69 | 90 | 1006.1 |
| 20260506182018 | 52 | 227 | 5.0 | 12.0 | 0.04 | 1.67 | 1.63 | 90 | 1005.9 |
| 20260506180903 | 52 | 208 | 9.0 | 15.0 | 0.10 | 1.63 | 1.59 | 90 | 1006.1 |
| 20260506180218 | 52 | 213 | 8.0 | 16.0 | 0.12 | 1.63 | 1.59 | 90 | 1006.0 |
| 20260506175618 | 52 | 221 | 9.0 | 17.0 | 0.12 | 1.63 | 1.59 | 90 | 1006.2 |
| 20260506174503 | 52 | 211 | 9.0 | 19.0 | 0.12 | 1.63 | 1.59 | 90 | 1005.9 |
| 20260506173603 | 52 | 221 | 12.0 | 23.0 | 0.12 | 1.63 | 1.59 | 89 | 1006.1 |
| 20260506172703 | 53 | 219 | 10.0 | 19.0 | 0.12 | 1.63 | 1.59 | 89 | 1006.1 |
| 20260506171803 | 53 | 202 | 8.0 | 15.0 | 0.08 | 1.61 | 1.57 | 89 | 1005.9 |
| 20260506170903 | 53 | 174 | 8.0 | 16.0 | 0.02 | 1.55 | 1.49 | 88 | 1005.5 |
| 20260506170218 | 54 | 174 | 8.0 | 17.0 | 0.00 | 1.53 | 1.47 | 88 | 1005.5 |
| 20260506165403 | 53 | 160 | 7.0 | 15.0 | 0.00 | 1.55 | 1.47 | 88 | 1005.5 |
| 20260506164503 | 53 | 166 | 7.0 | 13.0 | 0.00 | 1.59 | 1.47 | 89 | 1005.4 |
| 20260506163603 | 53 | 165 | 6.0 | 17.0 | 0.00 | 1.61 | 1.47 | 89 | 1005.6 |
| 20260506162703 | 53 | 180 | 7.0 | 16.0 | 0.00 | 1.63 | 1.47 | 89 | 1005.8 |
| 20260506161803 | 53 | 182 | 8.0 | 15.0 | 0.00 | 1.67 | 1.47 | 89 | 1005.8 |
| 20260506160903 | 53 | 196 | 5.0 | 11.0 | 0.00 | 1.69 | 1.47 | 89 | 1005.8 |
| 20260506160003 | 53 | 186 | 6.0 | 14.0 | 0.00 | 1.73 | 1.47 | 89 | 1005.8 |
| 20260506155617 | 53 | 182 | 7.0 | 14.0 | 0.00 | 1.76 | 1.47 | 89 | 1005.8 |
| 20260506154503 | 53 | 187 | 9.0 | 19.0 | 0.02 | 1.78 | 1.47 | 89 | 1005.9 |
| 20260506153603 | 53 | 185 | 8.0 | 21.0 | 0.02 | 1.80 | 1.47 | 90 | 1005.9 |
| 20260506152703 | 53 | 177 | 8.0 | 19.0 | 0.02 | 1.80 | 1.47 | 90 | 1006.2 |
| 20260506151803 | 53 | 181 | 10.0 | 15.0 | 0.04 | 1.81 | 1.47 | 90 | 1006.2 |
| 20260506150903 | 53 | 199 | 9.0 | 19.0 | 0.06 | 1.81 | 1.47 | 90 | 1006.2 |
| 20260506150003 | 53 | 178 | 9.0 | 19.0 | 0.08 | 1.81 | 1.47 | 90 | 1006.4 |
| 20260506145403 | 53 | 192 | 9.0 | 21.0 | 0.08 | 1.81 | 1.47 | 90 | 1006.3 |
| 20260506144503 | 52 | 187 | 8.0 | 15.0 | 0.06 | 1.81 | 1.45 | 90 | 1006.6 |
| 20260506143603 | 52 | 211 | 8.0 | 15.0 | 0.06 | 1.81 | 1.45 | 90 | 1006.4 |
| 20260506142703 | 52 | 219 | 8.0 | 15.0 | 0.06 | 1.81 | 1.45 | 90 | 1006.6 |
| 20260506141804 | 52 | 195 | 7.0 | 13.0 | 0.04 | 1.80 | 1.43 | 90 | 1006.6 |
| 20260506140903 | 52 | 215 | 6.0 | 13.0 | 0.02 | 1.80 | 1.41 | 90 | 1006.7 |
| 20260506140003 | 51 | 205 | 6.0 | 13.0 | 0.00 | 1.78 | 1.39 | 90 | 1006.8 |
| 20260506135403 | 51 | 193 | 6.0 | 13.0 | 0.00 | 1.78 | 1.39 | 90 | 1006.7 |
| 20260506134504 | 51 | 177 | 8.0 | 16.0 | 0.02 | 1.78 | 1.39 | 90 | 1006.9 |
| 20260506133603 | 51 | 178 | 9.0 | 21.0 | 0.04 | 1.78 | 1.39 | 90 | 1007.0 |
| 20260506132703 | 51 | 183 | 9.0 | 19.0 | 0.06 | 1.78 | 1.39 | 91 | 1007.1 |
| 20260506132018 | 51 | 198 | 9.0 | 17.0 | 0.06 | 1.78 | 1.39 | 91 | 1007.2 |
| 20260506130903 | 51 | 217 | 11.0 | 21.0 | 0.06 | 1.80 | 1.39 | 90 | 1007.2 |
| 20260506130005 | 51 | 193 | 8.0 | 17.0 | 0.08 | 1.80 | 1.39 | 91 | 1007.4 |
| 20260506125403 | 51 | 190 | 8.0 | 17.0 | 0.10 | 1.80 | 1.39 | 91 | 1007.0 |
| 20260506124717 | 51 | 198 | 9.0 | 14.0 | 0.08 | 1.78 | 1.37 | 91 | 1007.0 |
| 20260506123603 | 52 | 202 | 6.0 | 13.0 | 0.06 | 1.75 | 1.35 | 90 | 1007.0 |
| 20260506122703 | 51 | 222 | 6.0 | 13.0 | 0.06 | 1.73 | 1.33 | 90 | 1006.7 |
| 20260506121803 | 51 | 215 | 9.0 | 17.0 | 0.06 | 1.76 | 1.33 | 90 | 1006.8 |
| 20260506120903 | 51 | 207 | 9.0 | 18.0 | 0.06 | 1.76 | 1.33 | 91 | 1007.0 |
| 20260506120003 | 51 | 204 | 10.0 | 19.0 | 0.04 | 1.73 | 1.31 | 91 | 1007.0 |
| 20260506115403 | 51 | 188 | 9.0 | 19.0 | 0.02 | 1.71 | 1.28 | 90 | 1007.0 |
| 20260506114717 | 51 | 202 | 8.0 | 16.0 | 0.02 | 1.73 | 1.28 | 90 | 1007.1 |
| 20260506113603 | 51 | 196 | 12.0 | 23.0 | 0.02 | 1.73 | 1.28 | 90 | 1007.0 |
| 20260506112918 | 51 | 185 | 12.0 | 23.0 | 0.00 | 1.71 | 1.26 | 90 | 1007.1 |
| 20260506111803 | 51 | 156 | 8.0 | 15.0 | 0.02 | 1.71 | 1.26 | 91 | 1006.9 |
| 20260506110903 | 51 | 166 | 8.0 | 17.0 | 0.02 | 1.71 | 1.26 | 90 | 1006.8 |
| 20260506110003 | 52 | 163 | 7.0 | 16.0 | 0.06 | 1.71 | 1.26 | 90 | 1007.2 |
| 20260506105403 | 52 | 160 | 10.0 | 18.0 | 0.08 | 1.71 | 1.26 | 90 | 1007.1 |
| 20260506104503 | 52 | 165 | 9.0 | 17.0 | 0.08 | 1.71 | 1.26 | 90 | 1007.1 |
| 20260506103603 | 52 | 163 | 8.0 | 16.0 | 0.08 | 1.73 | 1.26 | 90 | 1007.2 |
| 20260506102917 | 52 | 168 | 7.0 | 15.0 | 0.08 | 1.73 | 1.26 | 90 | 1007.2 |
| 20260506101804 | 52 | 157 | 5.0 | 12.0 | 0.06 | 1.71 | 1.24 | 90 | 1007.4 |
| 20260506101122 | 52 | 168 | 6.0 | 13.0 | 0.06 | 1.73 | 1.24 | 90 | 1007.4 |
| 20260506100003 | 52 | 166 | 8.0 | 14.0 | 0.02 | 1.69 | 1.20 | 90 | 1007.5 |
| 20260506095403 | 52 | 158 | 8.0 | 15.0 | 0.00 | 1.67 | 1.18 | 90 | 1007.4 |
| 20260506094503 | 52 | 145 | 7.0 | 13.0 | 0.02 | 1.67 | 1.18 | 90 | 1007.4 |
| 20260506093603 | 52 | 150 | 7.0 | 12.0 | 0.04 | 1.67 | 1.18 | 90 | 1007.5 |
| 20260506092703 | 52 | 159 | 6.0 | 12.0 | 0.06 | 1.67 | 1.18 | 90 | 1007.5 |
| 20260506091803 | 52 | 156 | 6.0 | 13.0 | 0.08 | 1.67 | 1.18 | 90 | 1007.5 |
| 20260506090903 | 52 | 138 | 5.0 | 10.0 | 0.10 | 1.67 | 1.18 | 90 | 1007.5 |
| 20260506090004 | 51 | 154 | 7.0 | 13.0 | 0.14 | 1.67 | 1.18 | 91 | 1007.5 |
| 20260506085403 | 51 | 157 | 6.0 | 13.0 | 0.16 | 1.67 | 1.18 | 91 | 1007.5 |
| 20260506084503 | 52 | 159 | 7.0 | 12.0 | 0.14 | 1.65 | 1.16 | 91 | 1007.6 |
| 20260506083603 | 51 | 149 | 7.0 | 13.0 | 0.14 | 1.63 | 1.16 | 91 | 1007.5 |
| 20260506082703 | 51 | 154 | 8.0 | 15.0 | 0.12 | 1.61 | 1.12 | 91 | 1007.4 |
| 20260506081803 | 51 | 171 | 8.0 | 16.0 | 0.12 | 1.59 | 1.10 | 91 | 1007.4 |
| 20260506081117 | 51 | 175 | 6.0 | 13.0 | 0.10 | 1.57 | 1.08 | 91 | 1007.3 |
| 20260506072703 | 51 | 191 | 1.0 | 4.0 | 0.31 | 1.49 | 1.00 | 91 | 1007.4 |
| 20260506071803 | 51 | 243 | 0.0 | 2.0 | 0.35 | 1.47 | 0.98 | 91 | 1007.5 |
| 20260506071117 | 51 | 261 | 1.0 | 4.0 | 0.41 | 1.47 | 0.98 | 91 | 1007.5 |
| 20260506061803 | 51 | 202 | 0.0 | 1.0 | 0.10 | 1.12 | 0.63 | 91 | 1007.4 |
| 20260506061117 | 51 | 202 | 0.0 | 1.0 | 0.04 | 1.06 | 0.57 | 91 | 1007.4 |
| 20260506050903 | 51 | 205 | 0.0 | 2.0 | 0.00 | 1.02 | 0.53 | 91 | 1007.2 |
| 20260506050218 | 51 | 202 | 0.0 | 2.0 | 0.00 | 1.02 | 0.53 | 90 | 1007.1 |
| 20260506044503 | 51 | 186 | 1.0 | 3.0 | 0.00 | 1.02 | 0.53 | 90 | 1007.3 |
| 20260506043604 | 51 | 210 | 0.0 | 2.0 | 0.00 | 1.02 | 0.53 | 90 | 1007.2 |
| 20260506042917 | 51 | 195 | 0.0 | 3.0 | 0.00 | 1.02 | 0.53 | 90 | 1007.2 |
| 20260506041803 | 51 | 197 | 1.0 | 5.0 | 0.00 | 1.02 | 0.53 | 90 | 1007.1 |
| 20260506040903 | 51 | 238 | 2.0 | 4.0 | 0.00 | 1.02 | 0.53 | 90 | 1007.3 |
| 20260506040003 | 51 | 233 | 2.0 | 5.0 | 0.00 | 1.02 | 0.53 | 90 | 1007.3 |
| 20260506035403 | 51 | 224 | 2.0 | 5.0 | 0.00 | 1.02 | 0.53 | 90 | 1007.4 |
| 20260506034718 | 51 | 229 | 3.0 | 5.0 | 0.00 | 1.02 | 0.53 | 90 | 1007.4 |
| 20260506033603 | 50 | 223 | 4.0 | 7.0 | 0.00 | 1.02 | 0.53 | 90 | 1007.5 |
| 20260506032703 | 50 | 189 | 4.0 | 10.0 | 0.00 | 1.02 | 0.53 | 90 | 1007.4 |
| 20260506031803 | 51 | 201 | 4.0 | 9.0 | 0.02 | 1.02 | 0.53 | 90 | 1007.5 |
| 20260506031117 | 51 | 207 | 4.0 | 11.0 | 0.02 | 1.02 | 0.53 | 90 | 1007.6 |
| 20260506030217 | 51 | 225 | 6.0 | 11.0 | 0.02 | 1.02 | 0.53 | 91 | 1007.7 |
| 20260506025403 | 51 | 210 | 7.0 | 15.0 | 0.02 | 1.02 | 0.53 | 91 | 1007.7 |
| 20260506024503 | 51 | 219 | 5.0 | 10.0 | 0.02 | 1.02 | 0.53 | 91 | 1007.8 |
| 20260506023603 | 51 | 211 | 2.0 | 7.0 | 0.02 | 1.02 | 0.53 | 91 | 1008.0 |
| 20260506022703 | 51 | 241 | 2.0 | 7.0 | 0.02 | 1.02 | 0.53 | 91 | 1008.0 |
| 20260506021803 | 51 | 224 | 4.0 | 9.0 | 0.00 | 1.00 | 0.51 | 90 | 1008.1 |
| 20260506021117 | 51 | 211 | 3.0 | 9.0 | 0.02 | 1.00 | 0.51 | 90 | 1008.2 |
| 20260506020004 | 51 | 200 | 5.0 | 12.0 | 0.04 | 1.00 | 0.51 | 90 | 1008.3 |
| 20260506015403 | 51 | 198 | 6.0 | 12.0 | 0.08 | 1.00 | 0.51 | 90 | 1008.4 |
| 20260506014503 | 51 | 207 | 5.0 | 12.0 | 0.19 | 1.00 | 0.51 | 90 | 1008.3 |
| 20260506013603 | 50 | 210 | 6.0 | 12.0 | 0.29 | 1.00 | 0.51 | 90 | 1008.3 |